Home > Weather > Birmingham > Past weeks

Flag for USA Past Weather in Birmingham, Alabama, USA — Yesterday and Last 2 Weeks

Now
74 °F

Passing clouds.


Feels Like: 72 °F
Forecast: 71 / 90 °F
Wind: No wind

Location: Birmingham International Airport

Current Time: May 31, 2016 at 10:47:47 PM

Latest Report: May 31, 2016 at 9:53 PM


Visibility: 10 mi

Pressure: 29.95 "Hg

Humidity: 91%

Dew Point: 71 °F

Location of BirminghamLocation

Past Weather in Birmingham — Graph

°F

Birmingham Temperature Yesterday

Maximum temperature yesterday: 92 °F (at 1:53 PM)
Minimum temperature yesterday: 67 °F (at 5:53 AM)
Average temperature yesterday: 80 °F

High & Low Weather Summary for the Past Weeks

 TemperatureHumidityPressure
High92 °F (May 30, 1:53 PM)100% (May 18, 4:02 AM)30.21 "Hg (May 18, 4:02 AM)
Low54 °F (May 23, 4:53 AM)26% (May 23, 2:53 PM)29.90 "Hg (May 31, 6:53 PM)
Average75 °F64%30.04 "Hg
* Reported May 16 9:53 PM — May 31 9:53 PM, Birmingham, Weather by CustomWeather, © 2016

Note: Actual official high and low records may vary slightly from our data, if they occured in-between our weather recording intervals... More about our weather records

Advertising

Birmingham Weather History for the Previous 24 Hours

Scroll right to see more
 ConditionsComfort  
Time TempWeatherWind HumidityBarometerVisibility
9:53 PM
Tue, May 31
74 °FPassing clouds.No wind91%29.95 "Hg10 mi
8:53 PM74 °FPartly cloudy.No wind88%29.92 "Hg10 mi
7:53 PM75 °FBroken clouds.No wind88%29.91 "Hg10 mi
6:53 PM77 °FBroken clouds.No wind79%29.90 "Hg10 mi
5:53 PM77 °FLight rain. Broken clouds.No wind77%29.90 "Hg10 mi
4:53 PM76 °FPartly sunny.9 mph72%29.93 "Hg10 mi
3:53 PM77 °FPartly sunny.5 mph62%29.91 "Hg10 mi
2:53 PM72 °FThunderstorms. Mostly cloudy.21 mph73%29.93 "Hg9 mi
1:53 PM90 °FLight rain. Broken clouds.13 mph37%29.92 "Hg9 mi
12:53 PM92 °FScattered clouds.10 mph33%29.94 "Hg10 mi
11:53 AM92 °FScattered clouds.No wind33%29.94 "Hg10 mi
10:53 AM88 °FScattered clouds.No wind43%29.96 "Hg10 mi
9:53 AM86 °FPassing clouds.6 mph48%29.96 "Hg10 mi
8:53 AM83 °FScattered clouds.3 mph51%29.97 "Hg10 mi
7:53 AM81 °FBroken clouds.No wind56%29.96 "Hg10 mi
6:53 AM75 °FSunny.No wind71%29.95 "Hg10 mi
5:53 AM69 °FPassing clouds.No wind87%29.93 "Hg10 mi
4:53 AM69 °FPassing clouds.No wind87%29.93 "Hg10 mi
3:53 AM69 °FClear.No wind87%29.92 "Hg10 mi
2:53 AM70 °FClear.No wind87%29.91 "Hg10 mi
1:53 AM71 °FClear.No wind84%29.92 "Hg10 mi
12:53 AM73 °FClear.No wind79%29.93 "Hg10 mi
11:53 PM
Mon, May 30
75 °FClear.No wind74%29.94 "Hg10 mi
10:53 PM76 °FClear.No wind72%29.95 "Hg10 mi
Weather by CustomWeather, © 2016

See weather overviewHow to use our weather pages